Lambertville, MI

6:02 AM EDT on September 25, 2017 (GMT -0400)
Lambertville

Weather History for KDUH - December, 2013

Change the Weather History Date:

Thursday, December 5, 2013

  Actual Average (KTOL) Record (KTOL)
Temperature  
Mean Temperature 47 °F -  
Max Temperature 62 °F 40 °F 70 °F (2001)
Min Temperature 32 °F 25 °F -2 °F (1976)
Degree Days  
Heating Degree Days 18    
Moisture  
Dew Point 36 °F    
Average Humidity 72    
Maximum Humidity 82    
Minimum Humidity 65    
Precipitation  
Precipitation 0.00 in - - ()
Sea Level Pressure  
Sea Level Pressure 29.89 in    
Wind  
Wind Speed 11 mph (WSW)    
Max Wind Speed 20 mph    
Max Gust Speed 25 mph    
Visibility 10 miles    
Events      
Averages and records for this station are not official NWS values.
T = Trace of Precipitation, MM = Missing Value Source: NWS Daily Summary

Daily Weather History Graph

Daily Weather History Graph

Search for Another Location

Airport or City:

Trip Planner

Search our weather history database for the weather conditions in past years. The results will help you decide how hot, cold, wet, or windy it might be!

Date:

Astronomy

Dec. 05, 2013 Rise Set
Actual Time 7:46 AM EST 5:04 PM EST
Civil Twilight 7:15 AM EST 5:35 PM EST
Nautical Twilight 6:40 AM EST 6:10 PM EST
Astronomical Twilight 6:06 AM EST 6:43 PM EST
Moon 10:04 AM EST (12/5) 8:24 PM EST (12/5)
Length of Visible Light 10h 19m
Length of Day
9h 17m
Waxing Crescent, 10% of the Moon is Illuminated
Dec 5
Waxing Crescent
Dec 9
First Quarter
Dec 17
Full
Dec 25
Last Quarter
Jan 1
New

Hourly Weather History & Observations

Time (EST) Temp. Windchill Dew Point Humidity Pressure Visibility Wind Dir Wind Speed Gust Speed Precip Events Conditions
12:15 AM 60.8 °F - 51.8 °F 72% 29.65 in 10.0 mi South 9.2 mph 16.1 mph N/A   Overcast
12:35 AM 60.8 °F - 51.8 °F 72% 29.65 in 10.0 mi SSW 9.2 mph 18.4 mph N/A   Overcast
12:55 AM 60.8 °F - 51.8 °F 72% 29.65 in 10.0 mi SSW 11.5 mph 18.4 mph N/A   Mostly Cloudy
1:15 AM 60.8 °F - 53.6 °F 77% 29.65 in 10.0 mi SSW 11.5 mph 16.1 mph N/A   Mostly Cloudy
1:35 AM 60.8 °F - 53.6 °F 77% 29.65 in 10.0 mi SSW 11.5 mph 17.3 mph N/A   Overcast
1:55 AM 60.8 °F - 53.6 °F 77% 29.65 in 10.0 mi SW 8.1 mph 18.4 mph N/A   Mostly Cloudy
2:15 AM 62.6 °F - 53.6 °F 72% 29.66 in 10.0 mi SW 11.5 mph 19.6 mph N/A   Mostly Cloudy
2:35 AM 60.8 °F - 53.6 °F 77% 29.67 in 10.0 mi SW 13.8 mph 20.7 mph N/A   Mostly Cloudy
2:55 AM 60.8 °F - 53.6 °F 77% 29.68 in 10.0 mi SW 10.4 mph 19.6 mph N/A   Mostly Cloudy
3:15 AM 60.8 °F - 53.6 °F 77% 29.67 in 10.0 mi SW 9.2 mph 17.3 mph N/A   Overcast
3:35 AM 60.8 °F - 53.6 °F 77% 29.68 in 10.0 mi SW 10.4 mph 16.1 mph N/A   Overcast
3:55 AM 59.0 °F - 53.6 °F 82% 29.68 in 10.0 mi SW 9.2 mph - N/A   Mostly Cloudy
4:15 AM 59.0 °F - 53.6 °F 82% 29.68 in 10.0 mi SW 11.5 mph 21.9 mph N/A   Mostly Cloudy
4:35 AM 59.0 °F - 53.6 °F 82% 29.68 in 10.0 mi SW 13.8 mph 17.3 mph N/A   Mostly Cloudy
4:55 AM 59.0 °F - 51.8 °F 77% 29.69 in 10.0 mi SW 8.1 mph 17.3 mph N/A   Mostly Cloudy
5:15 AM 59.0 °F - 51.8 °F 77% 29.70 in 10.0 mi WSW 12.7 mph 19.6 mph N/A   Overcast
5:35 AM 59.0 °F - 50.0 °F 72% 29.71 in 10.0 mi WSW 13.8 mph 24.2 mph N/A   Overcast
5:55 AM 57.2 °F - 48.2 °F 72% 29.73 in 10.0 mi West 16.1 mph 23.0 mph N/A   Overcast
6:15 AM 53.6 °F - 44.6 °F 72% 29.74 in 7.0 mi West 13.8 mph 21.9 mph N/A   Overcast
6:35 AM 51.8 °F - 44.6 °F 76% 29.75 in 10.0 mi WSW 12.7 mph 19.6 mph N/A   Overcast
6:55 AM 50.0 °F - 44.6 °F 82% 29.75 in 7.0 mi WSW 13.8 mph 20.7 mph N/A   Scattered Clouds
7:15 AM 50.0 °F - 42.8 °F 76% 29.76 in 7.0 mi West 13.8 mph 21.9 mph N/A   Scattered Clouds
7:35 AM 48.2 °F - 41.0 °F 76% 29.78 in 7.0 mi West 15.0 mph 20.7 mph N/A   Scattered Clouds
7:55 AM 46.4 °F 40.4 °F 37.4 °F 71% 29.79 in 10.0 mi West 13.8 mph 18.4 mph N/A   Clear
8:15 AM 44.6 °F 39.2 °F 37.4 °F 76% 29.81 in 10.0 mi West 10.4 mph 19.6 mph N/A   Clear
8:35 AM 44.6 °F 38.4 °F 37.4 °F 76% 29.82 in 10.0 mi WSW 12.7 mph 20.7 mph N/A   Clear
8:55 AM 44.6 °F 38.1 °F 35.6 °F 71% 29.84 in 10.0 mi WSW 13.8 mph 19.6 mph N/A   Clear
9:15 AM 42.8 °F 35.8 °F 33.8 °F 70% 29.84 in 10.0 mi WSW 13.8 mph 24.2 mph N/A   Clear
9:35 AM 42.8 °F 36.2 °F 33.8 °F 70% 29.85 in 10.0 mi WSW 12.7 mph 24.2 mph N/A   Clear
9:55 AM 42.8 °F 34.8 °F 33.8 °F 70% 29.87 in 10.0 mi WSW 17.3 mph 25.3 mph N/A   Scattered Clouds
10:15 AM 41.0 °F 33.5 °F 33.8 °F 76% 29.88 in 10.0 mi West 13.8 mph 18.4 mph N/A   Scattered Clouds
10:35 AM 41.0 °F 32.5 °F 32.0 °F 70% 29.90 in 10.0 mi West 17.3 mph 23.0 mph N/A   Scattered Clouds
10:55 AM 41.0 °F 33.1 °F 32.0 °F 70% 29.90 in 10.0 mi WSW 15.0 mph 23.0 mph N/A   Scattered Clouds
11:15 AM 41.0 °F 33.9 °F 32.0 °F 70% 29.89 in 10.0 mi West 12.7 mph 24.2 mph N/A   Overcast
11:35 AM 41.0 °F 33.5 °F 32.0 °F 70% 29.90 in 10.0 mi WSW 13.8 mph 19.6 mph N/A   Overcast
11:55 AM 41.0 °F 31.9 °F 30.2 °F 65% 29.92 in 10.0 mi West 19.6 mph 25.3 mph N/A   Mostly Cloudy
12:15 PM 41.0 °F 33.1 °F 30.2 °F 65% 29.91 in 10.0 mi West 15.0 mph 21.9 mph N/A   Scattered Clouds
12:35 PM 41.0 °F 32.8 °F 32.0 °F 70% 29.92 in 10.0 mi West 16.1 mph 20.7 mph N/A   Scattered Clouds
12:55 PM 41.0 °F 33.1 °F 32.0 °F 70% 29.93 in 10.0 mi WSW 15.0 mph 21.9 mph N/A   Mostly Cloudy
1:15 PM 39.2 °F 31.6 °F 30.2 °F 70% 29.93 in 10.0 mi WSW 12.7 mph 23.0 mph N/A   Mostly Cloudy
1:35 PM 39.2 °F 30.5 °F 30.2 °F 70% 29.93 in 10.0 mi West 16.1 mph 24.2 mph N/A   Overcast
1:55 PM 39.2 °F 31.6 °F 28.4 °F 65% 29.94 in 10.0 mi West 12.7 mph 23.0 mph N/A   Scattered Clouds
2:15 PM 37.4 °F 30.3 °F 28.4 °F 70% 29.93 in 10.0 mi West 10.4 mph 17.3 mph N/A   Mostly Cloudy
2:35 PM 39.2 °F 30.8 °F 28.4 °F 65% 29.94 in 10.0 mi West 15.0 mph - N/A   Mostly Cloudy
2:55 PM 37.4 °F 30.3 °F 28.4 °F 70% 29.94 in 10.0 mi West 10.4 mph 17.3 mph N/A   Scattered Clouds
3:15 PM 37.4 °F 28.9 °F 28.4 °F 70% 29.96 in 10.0 mi West 13.8 mph 23.0 mph N/A   Scattered Clouds
3:35 PM 37.4 °F 29.8 °F 28.4 °F 70% 29.97 in 10.0 mi West 11.5 mph 18.4 mph N/A   Mostly Cloudy
3:55 PM 37.4 °F 29.3 °F 28.4 °F 70% 29.98 in 10.0 mi West 12.7 mph 18.4 mph N/A   Mostly Cloudy
4:15 PM 37.4 °F 30.3 °F 26.6 °F 65% 29.99 in 10.0 mi West 10.4 mph 18.4 mph N/A   Scattered Clouds
4:35 PM 37.4 °F 28.5 °F 28.4 °F 70% 30.00 in 10.0 mi West 15.0 mph - N/A   Scattered Clouds
4:55 PM 35.6 °F 27.1 °F 26.6 °F 70% 30.03 in 10.0 mi West 12.7 mph 18.4 mph N/A   Clear
5:15 PM 35.6 °F 29.2 °F 26.6 °F 70% 30.04 in 10.0 mi West 8.1 mph - N/A   Scattered Clouds
5:35 PM 35.6 °F 29.2 °F 26.6 °F 70% 30.04 in 10.0 mi West 8.1 mph - N/A   Overcast
5:55 PM 35.6 °F 28.6 °F 26.6 °F 70% 30.05 in 10.0 mi West 9.2 mph - N/A   Mostly Cloudy
6:15 PM 35.6 °F 29.9 °F 28.4 °F 75% 30.05 in 10.0 mi West 6.9 mph - N/A   Mostly Cloudy
6:35 PM 35.6 °F 29.9 °F 26.6 °F 70% 30.04 in 10.0 mi West 6.9 mph - N/A   Overcast
6:55 PM 35.6 °F 29.2 °F 26.6 °F 70% 30.05 in 10.0 mi West 8.1 mph - N/A   Overcast
7:15 PM 35.6 °F 28.6 °F 26.6 °F 70% 30.07 in 10.0 mi West 9.2 mph - N/A   Overcast
7:35 PM 35.6 °F 28.6 °F 26.6 °F 70% 30.07 in 10.0 mi West 9.2 mph - N/A   Overcast
7:55 PM 35.6 °F 28.0 °F 26.6 °F 70% 30.10 in 10.0 mi West 10.4 mph - N/A   Overcast
8:15 PM 35.6 °F 28.0 °F 26.6 °F 70% 30.10 in 10.0 mi West 10.4 mph - N/A   Overcast
8:35 PM 33.8 °F 27.7 °F 23.0 °F 65% 30.08 in 10.0 mi West 6.9 mph - N/A   Overcast
8:55 PM 33.8 °F 25.8 °F 23.0 °F 65% 30.09 in 10.0 mi WNW 10.4 mph - N/A   Overcast
9:15 PM 33.8 °F 28.6 °F 23.0 °F 65% 30.08 in 10.0 mi WNW 5.8 mph - N/A   Overcast
9:35 PM 33.8 °F 27.0 °F 23.0 °F 65% 30.11 in 10.0 mi WNW 8.1 mph - N/A   Overcast
9:55 PM 33.8 °F 27.0 °F 23.0 °F 65% 30.13 in 10.0 mi WNW 8.1 mph - N/A   Overcast
10:15 PM 33.8 °F 28.6 °F 23.0 °F 65% 30.12 in 10.0 mi WNW 5.8 mph - N/A   Overcast
10:35 PM 32.0 °F 24.8 °F 23.0 °F 69% 30.13 in 10.0 mi West 8.1 mph - N/A   Overcast
10:55 PM 32.0 °F 23.6 °F 23.0 °F 69% 30.16 in 10.0 mi West 10.4 mph - N/A   Overcast
11:15 PM 32.0 °F 24.2 °F 23.0 °F 69% 30.14 in 10.0 mi West 9.2 mph - N/A   Overcast
11:35 PM 32.0 °F 23.6 °F 23.0 °F 69% 30.14 in 10.0 mi WNW 10.4 mph - N/A   Overcast
11:55 PM 32.0 °F 26.4 °F 23.0 °F 69% 30.14 in 10.0 mi West 5.8 mph - N/A   Overcast